Погода Никольское

Погода Никольское : погода сейчас, прогноз погоды и архив. Всё, что Вы хотите узнать о погоде Никольское!

Хотите узнать прогноз погоды Никольское? Тогда Вам сюда: Погода Никольское

Поиск расширенной информации на нашем сайте:

Другие новости

Новости СМИ2

Главная страница сайта

Новости сайта

03.07.2017

Напоминаем, что на нашем специализированном сайте Метеоцентр.Азия вы можете получить высокодетализированные автоматические прогнозы погоды по пунктам России, СНГ и мира в авиационном формате (включающие направление и скорость ветра, видимость, явления погоды, количество и форму облачности, нижнюю и верхнюю границу облачности).

Рекомендуем: для Вас архив аудиокниг в UA-IX

Погода Никольское - сегодня

Время (UTC), дата Ветер
(°,м/с) 
Видим.   Явления Облачность Т
(°С)
Тd
(°С)
f(%) Тe
(°С)
Pmin
(гПа)
dP
(гПа)
Po
(мм)
O2
(г/м3)
Тmin Tmax R s Состояние
почвы
09 12.11.18 090 (В) 6-11{15}  10 км  слаб. ливневой дождь  10/10 300 м кучево-дожд. 
[Cb cap]
+3.6 +1.2 84 +1  1023.8  0.1  766  305    +4.1  0.4     
18 12.11.18 080 (В) 6{13}  10 км  слаб. ливневой дождь  10/10 300 м кучево-дожд. 
[Cb cap]
+3.5 +1.5 87 +1  1024.5  0.1  767  305           
21 12.11.18 100 (В) 5{11}  20000 м  {ливн. осадки}  10/10 600 м 
[Sc]
+3.6 +1.3 85 +1  1025.1  0.5  767  305  +2.8       
03 13.11.18 080 (В) 6{11}  20000 м    9/8 600 м средняя 
[Cu Sc|Ac As]
+3.1 -1.2 73 1024.9  -0.5  767  306           
06 13.11.18 060 (СВ) 20000 м    9/9 600 м 
[Sc]
+1.6 -1.7 79 -1  1025  0.1  767  307           
12 13.11.18 070 (В) 10 км  слаб. ливневой снег  10/10 300 м кучево-дожд. 
[Cb cap]
+0.2 -1.8 86 -2  1025.2  0.1  767  309           
15 13.11.18 090 (В) 10 км  слаб. ливневой снег  10/10 300 м кучево-дожд. 
[Cb cap]
-0.1 -1 94 -3  1024.8  -0.4  767  309           
18 13.11.18 070 (В) 20000 м  {ливн. осадки}  10/10 600 м 
[Sc]
-0.3 -3 82 -2  1024.6  -0.2  767  310           
03 14.11.18 050 (СВ) 10 км  слаб. ливневой снег  9/8 600 м кучево-дожд., верхняя 
[Cb cap|Ci fib]
+0.1 -1 92 -2  1024.3  -0.4  767  309           
06 14.11.18 070 (В) 20000 м  {ливн. осадки}  9/9 600 м 
[Sc]
-0.7 -0.8 99 -3  1024.8  0.5  767  310           
12 14.11.18 060 (СВ) 20000 м  {ливн. осадки}  8/8 600 м 
[Sc]
-0.8 -2.4 89 -3  1025.1  0.2  767  310           
15 14.11.18 070 (В) 20000 м    6/6 600 м 
[Sc]
-1 -4.7 76 -3  1024.5  -0.6  767  311           
18 14.11.18 040 (СВ) 20000 м    6/6 600 м 
[Sc]
-1.8 -4.6 81 -3  1023.7  -0.9  766  311           
00 15.11.18 060 (СВ) 20000 м    9/9 600 м 
[Sc]
+1.9 -2.8 71 1021.9  -1.1  765  306           
03 15.11.18 060 (СВ) 20000 м    6/3 600 м верхняя 
[Cu med, cong|Ci]
+2.1 -0.9 81 1019.3  -2.6  763  305           
06 15.11.18 050 (СВ) 3{11}  20000 м    6/3 600 м верхняя 
[Cu Sc|Ci]
+0.5 -0.6 92 -1  1017.2  -2.1  761  306           
21 15.11.18 050 (СВ) 12-19{19}  10 км  слаб. ливневой снег  10/10 300 м кучево-дожд. 
[Cb cap]
+2.1 +0.6 90 -3  1006.8  -2.1  753  301  +0.8    <0.5  мокрый или
старый снег
50-90% 
09 16.11.18 040 (СВ) 8-14{17}  20000 м  {ливн. осадки}  9/9 600 м кучево-дожд. 
[Cb cap]
+1.3 +0.3 93 -3  1003.9  0.1  751  301    +2.6  0.2     
21 16.11.18 360 (С) 7{11}  20000 м    10/10 600 м 
[Sc]
+1.9 -1.7 77 -2  1008.8  2.1  755  302  +0.8    0.0  мокрый или
старый снег
50-90% 
03 17.11.18 320 (СЗ) 5{10}  20000 м    10/10 600 м 
[Sc]
+2.1 -2.8 70 -1  1010.9  0.8  757  303           
06 17.11.18 300 (СЗ) 20000 м    10/10 600 м 
[Sc]
+2 -2.9 70 -1  1012.6  1.6  758  303           
12 17.11.18 230 (ЮЗ) 20000 м    10/10 600 м 
[Sc]
+2.2 -4.8 60 +2  1014.1  0.5  759  304           
15 17.11.18 210 (ЮЗ) 20000 м    10/10 600 м 
[Sc]
+3.2 -1.9 69 +1  1013.9  -0.2  759  302           
21 17.11.18 220 (ЮЗ) 8{12}  20000 м  {ливн. осадки}  10/10 600 м кучево-дожд. 
[Cb cap]
+3.6 +0.6 81 1013.4  -0.3  758  302  +2    0.6  мокрый или
старый снег
50-90% 
09 18.11.18 180 (Ю) 12-15{20}  10 км  ливневой дождь  10/10 300 м кучево-дожд. 
[Cb cap]
+5.3 +2.8 84 +1  1001.2  -4.4  749  296    +5.3     
Время (UTC), дата Ветер
(°,м/с) 
Видим.   Явления Облачность Т
(°С)
Тd
(°С)
f(%) Тe
(°С)
Pmin
(гПа)
dP
(гПа)
Po
(мм)
O2
(г/м3)
Тmin Tmax R s Состояние
почвы

Для получения пояснительной информации подведите курсор к названию столбца.

ПОГОДА Никольское - архив

Всё, что Вы хотите узнать о погоде Никольское - удобно и подробно!

Выберите нужную дату (начиная с 1 января 2015* года) и нажмите кнопку "Найти".
Будут отображены архивные сводки погоды по пункту Никольское, начиная с указанной даты.


Отображать данные в формате CSV (для использования в таблицах Excel)


Внимание! Наш архив погоды предназначен исключительно для личного некоммерческого использования в познавательных целях. Если Вам необходимы официальные справки о состоянии погоды (для производственных, юридических, коммерческих и т.п. целей), обращайтесь в органы Росгидромета.

*Примечание: данная дата относится к архиву по метеостанциям СССР (Россия, СНГ, Балтия).
Архив по метеостанциям Зарубежной Европы и Азии (кроме Китая) хранится 10 дней, по другим регионам земного шара (Китай, Африка, Америка, Австралия, Океания) - 1 день.

Никольское - район местоположения метеостанции


Название, широта, долгота, высота метеостанции:
Никольское 55.2°ш. 166°д. 18 м над ур. моря [Российская Федерация]

Дополнительная информация

В oтличие oт бoльшинства пoгoдных сайтoв мы публикуем пoдрoбную метеoинфoрмацию в детальнoм прoфессиoнальнoм фoрмате.

Характеристики температуры и влажнoсти вoздуха измеряются на высoте 2 м в тени вдали oт зданий и деревьев.
Скoрoсть ветра измеряется на высoте 10 м (на урoвне рoста челoвека скoрoсть ветра ниже в 1.5-2 раза). Если метеoстанция нахoдится в гoрoде или в лесу, тo скoрoсть ветра занижена на 2-4 м/с пo сравнению с oткрытым местoм. Скoрoсть ветра над акватoриями крупных рек и oзёр, а также на вершинах хoлмoв на 2-5 м/с выше, чем в oбычных услoвиях.
Атмoсфернoе давление в разных тoчках местнoсти мoжет значительнo oтличаться oт давления на метеoстанции, в зависимoсти oт услoвий рельефа (при пoдъёме на 10 м давление пoнижается примернo на 1 мм рт.ст.).